Location: Newark
(45.5000°N, 11.4167°E)
Time: 15:47:40
(UTC+00:00)

Vanguard 2 - Pass Details

Date: 27 August 2019
Orbit: 554 x 2937 km, 32.9° (Epoch: 18 September)

Event Time Altitude Azimuth Distance (km) Brightness Sun altitude
Rises 17:15:00 0° 258° (WSW) 4,752 13.2 7.3°
Reaches altitude 10° 17:20:46 10° 231° (SW) 4,320 12.1 6.3°
Maximum altitude 17:24:59 12° 210° (SSW) 4,475 11.8 5.5°
Drops below altitude 10° 17:29:47 10° 190° (S) 5,035 11.7 4.7°
Sets 17:38:14 0° 167° (SSE) 6,510 12.0 3.2°
